Regional Weather Roundup
Issued by NWS

Home | Current Version | Previous Version | Text Only | Print | Product List | Glossary On
Versions: 1 2 3 4 5 6 7 8 9 10 11 12 13 14 15 16 17 18 19 20 21 22 23 24 25 26 27 28 29 30 31 32 33 34 35 36 37 38 39 40 41 42 43 44 45 46 47 48 49 50
000
ASUS43 KBIS 131110
RWRND

NORTH DAKOTA REGIONAL WEATHER ROUNDUP
NATIONAL WEATHER SERVICE BISMARCK ND
600 AM CDT SUN JUL 13 2014

NOTE: "FAIR" INDICATES FEW OR NO CLOUDS BELOW 12,000 FEET WITH NO
SIGNIFICANT WEATHER AND/OR OBSTRUCTIONS TO VISIBILITY.


NDZ001>003-009>011-017-131200-
NORTHWEST NORTH DAKOTA

CITY           SKY/WX    TMP DP  RH WIND       PRES   REMARKS
WILLISTON      CLEAR     54  46  74 NE5       30.14R
MINOT          CLEAR     54  44  69 W13       30.07R
MINOT AFB      CLEAR     53  49  88 W10       30.06S
$$

NDZ018>021-031>035-040>046-131200-
SOUTHWEST NORTH DAKOTA

CITY           SKY/WX    TMP DP  RH WIND       PRES   REMARKS
BISMARCK       CLEAR     57  52  83 NW6       30.07S
DICKINSON      CLEAR     52  48  86 NW6       30.13R
GARRISON         N/A     50  47  89 NW9       30.08R
HETTINGER ARPT CLEAR     52  49  89 NW6       30.14S
$$

NDZ004>008-012>016-024-026-027-054-131200-
NORTHEAST NORTH DAKOTA

CITY           SKY/WX    TMP DP  RH WIND       PRES   REMARKS
GRAND FORKS    CLEAR     51  48  89 W7        29.93S
GRND FRKS AFB  CLEAR     53  52  95 NW9       29.95R
DEVILS LAKE    CLEAR     55  46  71 NW13      29.98S
$$

NDZ022-023-025-028>030-036>039-047>053-131200-
SOUTHEAST NORTH DAKOTA

CITY           SKY/WX    TMP DP  RH WIND       PRES   REMARKS
FARGO          CLEAR     54  51  90 W5        29.96S
JAMESTOWN      CLEAR     58  55  90 NW8       30.00R
$$




USA.gov is the U.S. government's official web portal to all federal, state and local government web resources and services.